Time,TemperatureF,DewpointF,PressureIn,WindDirection,WindDirectionDegrees,WindSpeedMPH,WindSpeedGustMPH,Humidity,HourlyPrecipIn,Conditions,Clouds,dailyrainin,SolarRadiationWatts/m^2,SoftwareType,DateUTC
2013-01-27 00:00:00,17.0,7.0,-100.00,SSE,156,4.0,10.0,65,0.00,,,0.02,0.000000,,2013-01-27 06:00:00,
2013-01-27 00:21:00,17.0,7.0,-100.00,SSE,156,4.0,10.0,65,0.00,,,0.02,0.000000,,2013-01-27 06:21:00,
2013-01-27 00:32:00,17.0,7.0,-100.00,SSE,156,4.0,10.0,65,0.00,,,0.02,0.000000,,2013-01-27 06:32:00,
2013-01-27 00:42:00,17.0,7.0,-100.00,SSE,156,4.0,10.0,65,0.00,,,0.02,0.000000,,2013-01-27 06:42:00,
2013-01-27 00:52:00,17.0,7.0,-100.00,SSE,156,4.0,10.0,65,0.00,,,0.02,0.000000,,2013-01-27 06:52:00,
2013-01-27 01:00:00,16.0,7.0,-100.00,SSE,156,3.0,9.0,67,0.00,,,0.02,0.000000,,2013-01-27 07:00:00,
2013-01-27 01:21:00,16.0,7.0,-100.00,SSE,156,3.0,9.0,67,0.00,,,0.02,0.000000,,2013-01-27 07:21:00,
2013-01-27 01:32:00,16.0,7.0,-100.00,SSE,156,3.0,9.0,67,0.00,,,0.02,0.000000,,2013-01-27 07:32:00,
2013-01-27 01:42:00,16.0,7.0,-100.00,SSE,156,3.0,9.0,67,0.00,,,0.02,0.000000,,2013-01-27 07:42:00,
2013-01-27 01:52:00,16.0,7.0,-100.00,SSE,156,3.0,9.0,67,0.00,,,0.02,0.000000,,2013-01-27 07:52:00,
2013-01-27 02:00:00,17.0,8.0,-100.00,SSE,158,3.0,7.0,68,0.00,,,0.02,0.000000,,2013-01-27 08:00:00,
2013-01-27 02:32:00,17.0,8.0,-100.00,SSE,158,3.0,7.0,68,0.00,,,0.02,0.000000,,2013-01-27 08:32:00,
2013-01-27 02:42:00,17.0,8.0,-100.00,SSE,158,3.0,7.0,68,0.00,,,0.02,0.000000,,2013-01-27 08:42:00,
2013-01-27 02:52:00,17.0,8.0,-100.00,SSE,158,3.0,7.0,68,0.00,,,0.02,0.000000,,2013-01-27 08:52:00,
2013-01-27 03:00:00,18.0,9.0,-100.00,SSE,152,4.0,11.0,68,0.00,,,0.02,0.000000,,2013-01-27 09:00:00,
2013-01-27 03:32:00,18.0,9.0,-100.00,SSE,152,4.0,11.0,68,0.00,,,0.02,0.000000,,2013-01-27 09:32:00,
2013-01-27 03:42:00,18.0,9.0,-100.00,SSE,152,4.0,11.0,68,0.00,,,0.02,0.000000,,2013-01-27 09:42:00,
2013-01-27 03:52:00,18.0,9.0,-100.00,SSE,152,4.0,11.0,68,0.00,,,0.02,0.000000,,2013-01-27 09:52:00,
2013-01-27 04:00:00,19.0,10.0,-100.00,SSE,149,3.0,10.0,68,0.00,,,0.02,0.000000,,2013-01-27 10:00:00,
2013-01-27 04:21:00,19.0,10.0,-100.00,SSE,149,3.0,10.0,68,0.00,,,0.02,0.000000,,2013-01-27 10:21:00,
2013-01-27 04:32:00,19.0,10.0,-100.00,SSE,149,3.0,10.0,68,0.00,,,0.02,0.000000,,2013-01-27 10:32:00,
2013-01-27 04:42:00,19.0,10.0,-100.00,SSE,149,3.0,10.0,68,0.00,,,0.02,0.000000,,2013-01-27 10:42:00,
2013-01-27 04:52:00,19.0,10.0,-100.00,SSE,149,3.0,10.0,68,0.00,,,0.02,0.000000,,2013-01-27 10:52:00,
2013-01-27 05:00:00,19.0,11.0,-100.00,SSE,155,4.0,13.0,69,0.00,,,0.02,0.000000,,2013-01-27 11:00:00,
2013-01-27 05:22:00,19.0,11.0,-100.00,SSE,155,4.0,13.0,69,0.00,,,0.02,0.000000,,2013-01-27 11:22:00,
2013-01-27 05:32:00,19.0,11.0,-100.00,SSE,155,4.0,13.0,69,0.00,,,0.02,0.000000,,2013-01-27 11:32:00,
2013-01-27 05:42:00,19.0,11.0,-100.00,SSE,155,4.0,13.0,69,0.00,,,0.02,0.000000,,2013-01-27 11:42:00,
2013-01-27 05:52:00,19.0,11.0,-100.00,SSE,155,4.0,13.0,69,0.00,,,0.02,0.000000,,2013-01-27 11:52:00,
2013-01-27 06:00:00,18.0,10.0,-100.00,SE,138,4.0,10.0,69,0.00,,,0.02,0.000000,,2013-01-27 12:00:00,
2013-01-27 06:22:00,18.0,10.0,-100.00,SE,138,4.0,10.0,69,0.00,,,0.02,0.000000,,2013-01-27 12:22:00,
2013-01-27 06:33:00,18.0,10.0,-100.00,SE,138,4.0,10.0,69,0.00,,,0.02,0.000000,,2013-01-27 12:33:00,
2013-01-27 06:42:00,18.0,10.0,-100.00,SE,138,4.0,10.0,69,0.00,,,0.02,0.000000,,2013-01-27 12:42:00,
2013-01-27 06:52:00,18.0,10.0,-100.00,SE,138,4.0,10.0,69,0.00,,,0.02,0.000000,,2013-01-27 12:52:00,
2013-01-27 07:00:00,18.0,10.0,-100.00,SE,139,2.0,6.0,71,0.00,,,0.02,0.000000,,2013-01-27 13:00:00,
2013-01-27 07:22:00,18.0,10.0,-100.00,SE,139,2.0,6.0,71,0.00,,,0.02,0.000000,,2013-01-27 13:22:00,
2013-01-27 07:32:00,18.0,10.0,-100.00,SE,139,2.0,6.0,71,0.00,,,0.02,0.000000,,2013-01-27 13:32:00,
2013-01-27 07:42:00,18.0,10.0,-100.00,SE,139,2.0,6.0,71,0.00,,,0.02,0.000000,,2013-01-27 13:42:00,
2013-01-27 07:52:00,18.0,10.0,-100.00,SE,139,2.0,6.0,71,0.00,,,0.02,0.000000,,2013-01-27 13:52:00,
2013-01-27 08:00:00,19.0,11.0,-100.00,SE,135,4.0,7.0,70,0.00,,,0.02,2.000000,,2013-01-27 14:00:00,
2013-01-27 08:53:00,19.0,11.0,-100.00,SE,135,4.0,7.0,70,0.00,,,0.02,2.000000,,2013-01-27 14:53:00,
2013-01-27 09:00:00,22.0,12.0,-100.00,SE,144,4.0,8.0,65,0.00,,,0.02,19.000000,,2013-01-27 15:00:00,
2013-01-27 09:33:00,22.0,12.0,-100.00,SE,144,4.0,8.0,65,0.00,,,0.02,19.000000,,2013-01-27 15:33:00,
2013-01-27 09:42:00,22.0,12.0,-100.00,SE,144,4.0,8.0,65,0.00,,,0.02,19.000000,,2013-01-27 15:42:00,
2013-01-27 09:53:00,22.0,12.0,-100.00,SE,144,4.0,8.0,65,0.00,,,0.02,19.000000,,2013-01-27 15:53:00,
2013-01-27 10:00:00,26.0,14.0,-100.00,SSE,147,4.0,11.0,59,0.00,,,0.02,44.000000,,2013-01-27 16:00:00,
2013-01-27 10:33:00,26.0,14.0,-100.00,SSE,147,4.0,11.0,59,0.00,,,0.02,44.000000,,2013-01-27 16:33:00,
2013-01-27 10:42:00,26.0,14.0,-100.00,SSE,147,4.0,11.0,59,0.00,,,0.02,44.000000,,2013-01-27 16:42:00,
2013-01-27 10:53:00,26.0,14.0,-100.00,SSE,147,4.0,11.0,59,0.00,,,0.02,44.000000,,2013-01-27 16:53:00,
2013-01-27 11:00:00,29.0,14.0,-100.00,SSE,161,4.0,10.0,53,0.00,,,0.02,81.000000,,2013-01-27 17:00:00,
2013-01-27 11:32:00,29.0,14.0,-100.00,SSE,161,4.0,10.0,53,0.00,,,0.02,81.000000,,2013-01-27 17:32:00,
2013-01-27 11:42:00,29.0,14.0,-100.00,SSE,161,4.0,10.0,53,0.00,,,0.02,81.000000,,2013-01-27 17:42:00,
2013-01-27 11:53:00,29.0,14.0,-100.00,SSE,161,4.0,10.0,53,0.00,,,0.02,81.000000,,2013-01-27 17:53:00,
2013-01-27 12:00:00,30.0,15.0,-100.00,SSE,156,4.0,9.0,52,0.00,,,0.02,76.000000,,2013-01-27 18:00:00,
2013-01-27 12:32:00,30.0,15.0,-100.00,SSE,156,4.0,9.0,52,0.00,,,0.02,76.000000,,2013-01-27 18:32:00,
2013-01-27 12:42:00,30.0,15.0,-100.00,SSE,156,4.0,9.0,52,0.00,,,0.02,76.000000,,2013-01-27 18:42:00,
2013-01-27 12:52:00,30.0,15.0,-100.00,SSE,156,4.0,9.0,52,0.00,,,0.02,76.000000,,2013-01-27 18:52:00,
2013-01-27 13:00:00,32.0,15.0,-100.00,South,170,5.0,11.0,50,0.02,,,0.02,86.000000,,2013-01-27 19:00:00,
2013-01-27 13:22:00,32.0,15.0,-100.00,South,170,5.0,11.0,50,0.02,,,0.02,86.000000,,2013-01-27 19:22:00,
2013-01-27 13:33:00,32.0,15.0,-100.00,South,170,5.0,11.0,50,0.02,,,0.02,86.000000,,2013-01-27 19:33:00,
2013-01-27 13:42:00,32.0,15.0,-100.00,South,170,5.0,11.0,50,0.02,,,0.02,86.000000,,2013-01-27 19:42:00,
2013-01-27 13:52:00,32.0,15.0,-100.00,South,170,5.0,11.0,50,0.02,,,0.02,86.000000,,2013-01-27 19:52:00,
2013-01-27 14:00:00,33.0,18.0,-100.00,SSE,163,4.0,11.0,54,0.02,,,0.04,101.000000,,2013-01-27 20:00:00,
2013-01-27 14:22:00,33.0,18.0,-100.00,SSE,163,4.0,11.0,54,0.02,,,0.04,101.000000,,2013-01-27 20:22:00,
2013-01-27 14:33:00,33.0,18.0,-100.00,SSE,163,4.0,11.0,54,0.02,,,0.04,101.000000,,2013-01-27 20:33:00,
2013-01-27 14:42:00,33.0,18.0,-100.00,SSE,163,4.0,11.0,54,0.02,,,0.04,101.000000,,2013-01-27 20:42:00,
2013-01-27 14:52:00,33.0,18.0,-100.00,SSE,163,4.0,11.0,54,0.02,,,0.04,101.000000,,2013-01-27 20:52:00,
2013-01-27 15:00:00,31.0,19.0,-100.00,SSE,150,4.0,10.0,61,0.00,,,0.04,63.000000,,2013-01-27 21:00:00,
2013-01-27 15:33:00,31.0,19.0,-100.00,SSE,150,4.0,10.0,61,0.00,,,0.04,63.000000,,2013-01-27 21:33:00,
2013-01-27 15:43:00,31.0,19.0,-100.00,SSE,150,4.0,10.0,61,0.00,,,0.04,63.000000,,2013-01-27 21:43:00,
2013-01-27 15:52:00,31.0,19.0,-100.00,SSE,150,4.0,10.0,61,0.00,,,0.04,63.000000,,2013-01-27 21:52:00,
2013-01-27 16:00:00,29.0,25.0,-100.00,SE,140,3.0,11.0,84,0.00,,,0.04,31.000000,,2013-01-27 22:00:00,
2013-01-27 16:22:00,29.0,25.0,-100.00,SE,140,3.0,11.0,84,0.00,,,0.04,31.000000,,2013-01-27 22:22:00,
2013-01-27 16:33:00,29.0,25.0,-100.00,SE,140,3.0,11.0,84,0.00,,,0.04,31.000000,,2013-01-27 22:33:00,
2013-01-27 16:42:00,29.0,25.0,-100.00,SE,140,3.0,11.0,84,0.00,,,0.04,31.000000,,2013-01-27 22:42:00,
2013-01-27 16:52:00,29.0,25.0,-100.00,SE,140,3.0,11.0,84,0.00,,,0.04,31.000000,,2013-01-27 22:52:00,
2013-01-27 17:00:00,27.0,25.0,-100.00,ESE,117,5.0,10.0,91,0.00,,,0.04,7.000000,,2013-01-27 23:00:00,
2013-01-27 17:22:00,27.0,25.0,-100.00,ESE,117,5.0,10.0,91,0.00,,,0.04,7.000000,,2013-01-27 23:22:00,
2013-01-27 17:32:00,27.0,25.0,-100.00,ESE,117,5.0,10.0,91,0.00,,,0.04,7.000000,,2013-01-27 23:32:00,
2013-01-27 17:42:00,27.0,25.0,-100.00,ESE,117,5.0,10.0,91,0.00,,,0.04,7.000000,,2013-01-27 23:42:00,
2013-01-27 17:53:00,27.0,25.0,-100.00,ESE,117,5.0,10.0,91,0.00,,,0.04,7.000000,,2013-01-27 23:53:00,
2013-01-27 18:00:00,27.0,25.0,-100.00,ESE,113,5.0,10.0,92,0.00,,,0.04,0.000000,,2013-01-28 00:00:00,
2013-01-27 18:22:00,27.0,25.0,-100.00,ESE,113,5.0,10.0,92,0.00,,,0.04,0.000000,,2013-01-28 00:22:00,
2013-01-27 18:33:00,27.0,25.0,-100.00,ESE,113,5.0,10.0,92,0.00,,,0.04,0.000000,,2013-01-28 00:33:00,
2013-01-27 18:42:00,27.0,25.0,-100.00,ESE,113,5.0,10.0,92,0.00,,,0.04,0.000000,,2013-01-28 00:42:00,
2013-01-27 18:52:00,27.0,25.0,-100.00,ESE,113,5.0,10.0,92,0.00,,,0.04,0.000000,,2013-01-28 00:52:00,
2013-01-27 19:00:00,26.0,24.0,-100.00,ESE,118,4.0,10.0,93,0.00,,,0.04,0.000000,,2013-01-28 01:00:00,
2013-01-27 19:33:00,26.0,24.0,-100.00,ESE,118,4.0,10.0,93,0.00,,,0.04,0.000000,,2013-01-28 01:33:00,
2013-01-27 19:42:00,26.0,24.0,-100.00,ESE,118,4.0,10.0,93,0.00,,,0.04,0.000000,,2013-01-28 01:42:00,
2013-01-27 19:52:00,26.0,24.0,-100.00,ESE,118,4.0,10.0,93,0.00,,,0.04,0.000000,,2013-01-28 01:52:00,
2013-01-27 20:00:00,27.0,25.0,-100.00,SE,130,4.0,10.0,93,0.00,,,0.04,0.000000,,2013-01-28 02:00:00,
2013-01-27 20:32:00,27.0,25.0,-100.00,SE,130,4.0,10.0,93,0.00,,,0.04,0.000000,,2013-01-28 02:32:00,
2013-01-27 20:42:00,27.0,25.0,-100.00,SE,130,4.0,10.0,93,0.00,,,0.04,0.000000,,2013-01-28 02:42:00,
2013-01-27 20:52:00,27.0,25.0,-100.00,SE,130,4.0,10.0,93,0.00,,,0.04,0.000000,,2013-01-28 02:52:00,
2013-01-27 21:00:00,26.0,24.0,-100.00,SE,127,3.0,10.0,93,0.00,,,0.04,0.000000,,2013-01-28 03:00:00,
2013-01-27 21:22:00,26.0,24.0,-100.00,SE,127,3.0,10.0,93,0.00,,,0.04,0.000000,,2013-01-28 03:22:00,
2013-01-27 21:32:00,26.0,24.0,-100.00,SE,127,3.0,10.0,93,0.00,,,0.04,0.000000,,2013-01-28 03:32:00,
2013-01-27 21:42:00,26.0,24.0,-100.00,SE,127,3.0,10.0,93,0.00,,,0.04,0.000000,,2013-01-28 03:42:00,
2013-01-27 21:53:00,26.0,24.0,-100.00,SE,127,3.0,10.0,93,0.00,,,0.04,0.000000,,2013-01-28 03:53:00,
2013-01-27 22:00:00,26.0,24.0,-100.00,SE,126,2.0,8.0,93,0.00,,,0.04,0.000000,,2013-01-28 04:00:00,
2013-01-27 22:22:00,26.0,24.0,-100.00,SE,126,2.0,8.0,93,0.00,,,0.04,0.000000,,2013-01-28 04:22:00,
2013-01-27 22:32:00,26.0,24.0,-100.00,SE,126,2.0,8.0,93,0.00,,,0.04,0.000000,,2013-01-28 04:32:00,
2013-01-27 22:42:00,26.0,24.0,-100.00,SE,126,2.0,8.0,93,0.00,,,0.04,0.000000,,2013-01-28 04:42:00,
2013-01-27 22:52:00,26.0,24.0,-100.00,SE,126,2.0,8.0,93,0.00,,,0.04,0.000000,,2013-01-28 04:52:00,
2013-01-27 23:00:00,26.0,25.0,-100.00,ESE,122,3.0,9.0,94,0.00,,,0.04,0.000000,,2013-01-28 05:00:00,
2013-01-27 23:32:00,26.0,25.0,-100.00,ESE,122,3.0,9.0,94,0.00,,,0.04,0.000000,,2013-01-28 05:32:00,
2013-01-27 23:42:00,26.0,25.0,-100.00,ESE,122,3.0,9.0,94,0.00,,,0.04,0.000000,,2013-01-28 05:42:00,
2013-01-27 23:52:00,26.0,25.0,-100.00,ESE,122,3.0,9.0,94,0.00,,,0.04,0.000000,,2013-01-28 05:52:00,